Location: Lancaster
(54.0470°N, 2.8020°W)
Time: 01:17:47
(UTC+01:00)

COSMOS 2428 - Visible Passes

Search period start: 31 March 2015 00:00
Search period end: 10 April 2015 00:00
Orbit: 847 x 854 km, 71.0° (Epoch: 30 March)

Date Brightness Start Highest point End Pass type
(mag) Time Alt. Az. Time Alt. Az. Time Alt. Az.
31 Mar 5.8 21:31:44 10° W 21:32:54 10° W 21:33:44 10° WSW visible
01 Apr 5.8 21:19:20 10° W 21:20:32 10° W 21:21:25 10° WSW visible
02 Apr 5.9 21:06:56 10° W 21:08:10 11° W 21:09:05 10° WSW visible
03 Apr 6.0 20:54:32 10° W 20:55:49 11° W 20:56:46 10° WSW visible
04 Apr 6.0 20:42:08 10° W 20:43:27 11° W 20:44:26 10° WSW visible
05 Apr 6.1 20:29:44 10° W 20:31:05 11° W 20:32:06 10° WSW visible
